CAPE
5 4 4 2 1 0 0 1 2 1 2 2 2 1 0 0 0 0 0 0 0 0 0 0 0 0 0 0 0 0 0 0 0 0 0 0 0 0 0 0 0 0 0 0 599
4 1 2 2 4 4 5 3 2 1 1 3 0 0 0 0 0 0 0 0 0 0 0 0 0 0 0 0 0 0 0 0 0 0 0 0 0 0 0 0 0 0 2 1347 840
7 6 7 8 7 7 8 7 6 5 7 4 3 5 0 0 0 0 0 0 0 0 0 0 0 0 0 0 0 0 0 0 0 0 0 0 0 0 0 0 0 0 20 1952 1602
4 3 1 2 2 2 4 6 8 9 8 6 2 4 6 1 0 0 0 0 0 0 0 0 0 0 0 0 0 0 0 0 0 0 0 0 0 0 0 0 0 0 0 0 2140
4 2 1 1 0 0 0 0 0 1 4 8 6 5 6 0 0 0 0 0 0 0 0 0 0 0 0 0 0 0 0 0 0 0 0 0 0 0 0 0 0 0 0 0 0
2 1 1 0 0 0 0 0 0 0 3 7 1 2 0 0 0 0 0 0 0 0 0 0 0 0 0 0 0 0 0 0 0 0 0 0 0 0 0 0 0 0 0 0 0
1 0 0 0 0 0 0 0 0 1 4 5 8 5 1 0 0 0 0 0 0 0 0 0 0 0 0 0 0 0 0 0 0 0 0 0 0 0 0 0 0 0 0 0 0
1 0 0 0 0 0 0 0 0 0 1 4 4 9 0 0 0 0 0 0 0 0 0 0 0 0 0 0 0 0 0 0 0 0 0 0 0 0 0 0 0 0 0 0 0
3 3 2 2 1 3 4 0 0 0 0 1 4 5 0 0 0 0 0 0 0 0 0 0 0 0 0 0 0 0 0 0 0 0 0 0 0 0 0 0 0 0 0 0 0
6 2 3 2 1 4 0 0 0 0 0 1 1 0 0 0 0 0 0 0 0 0 0 0 0 0 0 0 0 0 0 0 0 0 0 0 0 0 0 0 0 0 0 0 0
1 1 4 2 3 3 0 0 0 0 0 0 0 0 0 0 0 0 5 0 0 0 0 0 0 0 0 0 0 0 0 0 0 0 0 0 0 0 0 0 0 0 0 0 0
1 0 3 2 0 0 0 0 0 0 0 0 0 0 0 0 0 0 0 20 14 4 2 0 0 0 0 0 0 0 0 0 0 0 0 0 0 0 0 0 0 0 0 0 0
0 0 2 4 0 0 0 0 0 2 1 0 0 0 0 0 0 0 0 0 1 10 26 55 0 0 0 0 0 0 0 0 0 0 0 0 0 0 0 0 0 0 0 0 0
0 0 2 4 0 0 4 3 5 8 0 0 0 3 0 3 2 0 6 0 0 0 19 32 22 0 20 2 0 0 0 0 0 0 0 0 0 0 0 0 0 0 0 0 0
0 1 3 0 0 3 5 4 4 3 0 0 31 43 58 101 72 61 44 0 2 0 0 0 0 12 19 8 10 0 4 0 0 0 0 0 0 0 0 0 0 0 0 0 0
0 0 1 0 3 15 4 0 13 6 12 0 12 3 9 23 15 21 49 143 105 8 1 0 11 7 18 12 25 7 16 17 16 0 0 0 0 0 0 0 0 0 0 0 0
0 0 0 0 0 0 0 19 13 8 1 0 0 1 3 0 0 37 35 48 47 48 15 3 11 7 11 54 17 23 10 3 7 16 0 0 0 0 0 0 0 0 0 0 0
0 0 0 0 0 18 33 5 10 0 4 0 1 0 0 9 13 30 49 48 46 71 20 6 6 0 0 2 28 64 44 12 1 0 0 0 0 0 0 0 0 0 0 0 31
0 0 0 0 0 25 9 13 2 4 2 3 0 5 10 2 2 5 40 76 65 57 48 19 23 5 30 1 74 58 102 13 21 20 0 0 0 0 0 0 0 0 26 307 100
0 0 0 0 0 16 10 0 2 4 2 1 0 3 1 3 2 16 47 43 68 35 59 21 7 28 12 9 46 108 77 31 5 4 5 5 0 0 0 0 0 48 68 63 60
0 0 0 0 0 2 5 4 0 0 4 0 0 0 0 6 3 20 14 2 9 10 8 13 7 12 1 12 2 19 89 92 29 26 11 9 0 3 0 0 2 51 4 6 7
0 0 0 0 0 0 4 2 0 1 1 0 3 1 0 8 1 12 18 21 16 9 0 17 38 24 16 5 1 4 70 41 82 74 41 27 2 71 0 0 61 4 6 4 4
0 0 0 0 0 1 1 0 1 0 0 0 6 12 2 9 1 16 10 3 16 3 2 4 45 10 8 0 14 0 3 75 95 92 91 71 115 25 51 22 61 5 5 5 2
0 0 0 0 1 1 1 0 0 0 0 1 1 5 13 5 0 2 0 0 1 1 14 60 25 10 7 5 0 21 0 12 39 102 102 71 85 51 171 50 5 4 4 2 1
7 4 6 0 0 1 0 0 0 3 2 3 0 1 3 1 4 3 3 0 0 10 2 0 2 17 8 4 2 2 15 0 3 64 96 218 95 119 43 23 12 5 3 3 1
8 6 2 0 5 2 0 0 0 1 3 1 1 0 4 3 2 0 2 2 4 1 3 3 0 1 1 2 5 0 8 6 1 39 72 191 233 341 254 83 27 3 2 4 3
2 1 2 1 0 0 0 2 0 1 0 0 0 0 2 3 3 3 3 3 1 0 2 3 0 0 0 0 6 2 78 1 6 3 4 29 515 402 118 85 61 2 3 3 3
CIN
-0 -0 -0 -0 -0 -0 -0 -0 -0 -0 -0 -0 -0 -0 -0 -0 -0 -0 -0 -0 -0 -0 -0 -0 -0 -0 -0 -0 -0 -0 -0 -0 -0 -0 -0 -0 -0 -0 -0 -0 -0 -0 -0 -0 -102
-0 -0 -0 -1 -0 -0 -0 -0 -0 -0 -0 -0 -0 -0 -0 -0 -0 -0 -0 -0 -0 -0 -0 -0 -0 -0 -0 -0 -0 -0 -0 -0 -0 -0 -0 -0 -0 -0 -0 -0 -0 -0 -14 -75 -110
-0 -0 -0 -0 -0 -0 -0 -0 -0 -0 -0 -0 -1 -1 -0 -0 -0 -0 -0 -0 -0 -0 -0 -0 -0 -0 -0 -0 -0 -0 -0 -0 -0 -0 -0 -0 -0 -0 -0 -0 -0 -0 -13 -41 -63
-0 -0 -0 -0 -0 -0 -0 -0 -0 -0 -0 -0 -0 -0 -4 -0 -0 -0 -0 -0 -0 -0 -0 -0 -0 -0 -0 -0 -0 -0 -0 -0 -0 -0 -0 -0 -0 -0 -0 -0 -0 -0 -0 -0 -18
-0 -0 -0 -0 -0 -0 -0 -0 -0 -0 -0 -0 -0 -1 -0 -0 -0 -0 -0 -0 -0 -0 -0 -0 -0 -0 -0 -0 -0 -0 -0 -0 -0 -0 -0 -0 -0 -0 -0 -0 -0 -0 -0 -0 -0
-0 -0 -0 -0 -0 -0 -0 -0 -0 -0 -0 -0 -0 -2 -0 -0 -0 -0 -0 -0 -0 -0 -0 -0 -0 -0 -0 -0 -0 -0 -0 -0 -0 -0 -0 -0 -0 -0 -0 -0 -0 -0 -0 -0 -0
-0 -0 -0 -0 -0 -0 -0 -0 -0 -0 -0 -0 -0 -0 -0 -0 -0 -0 -0 -0 -0 -0 -0 -0 -0 -0 -0 -0 -0 -0 -0 -0 -0 -0 -0 -0 -0 -0 -0 -0 -0 -0 -0 -0 -0
-0 -0 -0 -0 -0 -0 -0 -0 -0 -0 -0 -0 -0 -0 -0 -0 -0 -0 -0 -0 -0 -0 -0 -0 -0 -0 -0 -0 -0 -0 -0 -0 -0 -0 -0 -0 -0 -0 -0 -0 -0 -0 -0 -0 -0
-0 -0 -0 -0 -0 -0 -0 -0 -0 -0 -0 -0 -0 -0 -0 -0 -0 -0 -0 -0 -0 -0 -0 -0 -0 -0 -0 -0 -0 -0 -0 -0 -0 -0 -0 -0 -0 -0 -0 -0 -0 -0 -0 -0 -0
-0 -0 -0 -0 -0 -0 -0 -0 -0 -0 -0 -0 -1 -0 -0 -0 -0 -0 -0 -0 -0 -0 -0 -0 -0 -0 -0 -0 -0 -0 -0 -0 -0 -0 -0 -0 -0 -0 -0 -0 -0 -0 -0 -0 -0
-0 -0 -0 -0 -0 -0 -0 -0 -0 -0 -0 -0 -0 -0 -0 -0 -0 -0 -1 -0 -0 -0 -0 -0 -0 -0 -0 -0 -0 -0 -0 -0 -0 -0 -0 -0 -0 -0 -0 -0 -0 -0 -0 -0 -0
-0 -0 -0 -0 -0 -0 -0 -0 -0 -0 -0 -0 -0 -0 -0 -0 -0 -0 -0 -0 -0 -2 -1 -0 -0 -0 -0 -0 -0 -0 -0 -0 -0 -0 -0 -0 -0 -0 -0 -0 -0 -0 -0 -0 -0
-0 -0 -0 -0 -0 -0 -0 -0 -0 -1 -0 -0 -0 -0 -0 -0 -0 -0 -0 -0 -3 -3 -2 -2 -0 -0 -0 -0 -0 -0 -0 -0 -0 -0 -0 -0 -0 -0 -0 -0 -0 -0 -0 -0 -0
-0 -0 -0 -0 -0 -0 -1 -1 -0 -0 -0 -0 -0 -1 -0 -42 -11 -0 -22 -0 -0 -0 -2 -6 -5 -0 -3 -3 -1 -0 -0 -0 -0 -0 -0 -0 -0 -0 -0 -0 -0 -0 -0 -0 -0
-0 -0 -0 -0 -0 -1 -1 -0 -1 -0 -0 -0 -3 -11 -5 -2 -3 -3 -9 -0 -1 -0 -0 -0 -0 -3 -5 -7 -4 -0 -4 -0 -0 -0 -0 -0 -0 -0 -0 -0 -0 -0 -0 -0 -0
-0 -0 -0 -0 -2 -1 -0 -0 -1 -0 -2 -0 -4 -4 -4 -2 -2 -5 -3 -2 -21 -1 -0 -0 -16 -36 -7 -7 -6 -9 -6 -8 -4 -2 -0 -0 -0 -0 -0 -0 -0 -0 -0 -0 -0
-0 -0 -0 -0 -0 -0 -0 -0 -0 -1 -3 -0 -0 -1 -2 -0 -0 -8 -3 -3 -2 -1 -1 -8 -13 -3 -14 -5 -13 -10 -13 -13 -6 -5 -0 -0 -0 -0 -0 -0 -0 -0 -0 -0 -0
-0 -0 -0 -0 -0 -9 -3 -2 -0 -2 -2 -2 -1 -0 -0 -3 -5 -4 -3 -2 -5 -2 -3 -3 -4 -7 -4 -3 -7 -5 -5 -3 -0 -0 -0 -0 -0 -0 -0 -0 -0 -0 -0 -0 -254
-0 -0 -0 -0 -0 -12 -1 -2 -0 -0 -0 -0 -0 -2 -1 -0 -0 -0 -1 -2 -2 -10 -2 -3 -2 -7 -2 -14 -7 -3 -4 -36 -8 -9 -0 -0 -0 -0 -0 -0 -0 -0 -300 -169 -317
-0 -0 -0 -0 -0 -0 -1 -0 -0 -1 -0 -0 -0 -0 -0 -0 -0 -1 -1 -2 -0 -3 -4 -2 -0 -8 -10 -21 -10 -5 -16 -4 -42 -22 -7 -5 -0 -0 -0 -0 -0 -234 -245 -357 -385
-0 -0 -0 -0 -0 -1 -0 -0 -0 -1 -0 -0 -0 -0 -0 -0 -0 -0 -2 -1 -2 -1 -1 -0 -0 -2 -0 -6 -3 -23 -9 -5 -10 -15 -8 -4 -0 -10 -0 -0 -204 -228 -86 -0 -0
-0 -0 -0 -0 -0 -1 -0 -2 -1 -0 -0 -0 -0 -0 -0 -0 -0 -0 -1 -0 -1 -1 -0 -0 -0 -0 -4 -15 -0 -0 -5 -5 -10 -11 -8 -11 -5 -103 -0 -0 -77 -14 -0 -0 -0
-0 -0 -0 -0 -0 -0 -0 -0 -1 -0 -0 -0 -0 -0 -3 -0 -0 -0 -0 -2 -1 -1 -0 -0 -0 -1 -3 -0 -1 -0 -25 -18 -4 -8 -5 -8 -9 -123 -40 -22 -73 -0 -0 -0 -0
-1 -0 -0 -0 -0 -0 -0 -0 -0 -0 -0 -1 -1 -1 -0 -0 -3 -2 -0 -0 -0 -2 -0 -0 -0 -0 -0 -1 -0 -1 -3 -74 -9 -5 -7 -6 -90 -67 -10 -91 -23 -0 -0 -0 -0
-0 -2 -0 -0 -0 -0 -0 -0 -0 -0 -0 -1 -0 -1 -0 -0 -0 -0 -4 -0 -0 -1 -0 -3 -2 -0 -1 -0 -0 -0 -2 -0 -9 -8 -18 -3 -31 -88 -114 -186 -240 -0 -0 -0 -1
-0 -0 -1 -0 -0 -1 -0 -0 -0 -0 -1 -0 -0 -0 -0 -0 -0 -0 -0 -0 -0 -0 -0 -0 -0 -0 -0 -1 -0 -0 -0 -4 -4 -20 -21 -41 -7 -41 -53 -138 -171 -0 -0 -0 -1
-0 -0 -2 -0 -0 -0 -0 -1 -1 -1 -0 -0 -0 -0 -0 -0 -0 -0 -0 -0 -0 -0 -0 -0 -0 -0 -0 -0 -0 -0 -5 -49 -8 -20 -52 -18 -3 -37 -141 -185 -223 -0 -0 -0 -1
Wind_Speed
32 32 32 32 33 33 33 33 34 34 34 35 35 35 36 38 41 41 43 24 18 18 18 18 14 12 14 17 18 18 32 37 32 28 33 24 27 24 24 26 23 22 26 23 15
34 33 34 34 34 34 34 35 35 36 35 36 36 36 37 39 42 46 40 22 17 15 18 16 15 12 14 18 20 21 32 33 32 32 29 29 26 23 25 26 26 22 22 21 15
36 36 36 36 36 36 37 37 36 37 37 37 37 36 37 37 40 26 22 11 11 14 20 20 19 15 21 20 21 26 28 31 33 31 32 36 28 26 28 26 22 22 21 19 17
38 38 39 39 40 39 38 38 38 38 37 37 36 36 35 33 34 22 17 16 16 15 16 16 18 21 25 26 25 36 34 35 36 30 32 35 34 32 30 28 22 17 18 20 18
40 41 42 42 43 43 42 42 40 38 36 34 32 30 31 31 32 26 25 25 22 15 20 20 21 22 28 29 30 31 35 31 37 34 31 34 36 34 30 28 29 22 24 23 21
42 43 44 45 46 46 46 47 46 45 42 38 32 28 28 36 25 24 25 26 25 21 23 23 26 27 34 37 34 31 38 43 35 36 36 35 36 31 30 28 27 28 30 25 20
44 45 46 47 48 49 50 51 49 45 46 42 33 28 34 33 23 20 23 24 24 26 31 27 29 28 32 39 39 38 41 36 41 36 33 31 46 31 33 29 31 29 29 26 21
46 47 49 50 51 52 53 54 53 52 45 36 28 24 38 34 32 35 36 41 37 31 31 31 29 36 39 35 34 39 42 47 37 34 36 30 53 32 30 30 33 31 30 29 25
47 48 50 51 52 55 53 53 50 41 35 27 25 26 41 23 31 29 27 30 30 30 29 27 27 35 33 40 42 38 45 44 42 30 31 30 41 38 23 25 29 29 27 28 24
48 48 49 51 54 53 52 48 37 31 26 24 29 33 34 36 31 33 29 27 30 27 31 35 36 39 42 39 48 44 47 49 43 36 35 34 41 29 26 29 27 29 25 24 23
49 50 52 54 55 53 47 44 41 38 33 45 47 50 51 47 45 37 29 26 31 31 41 35 44 52 50 46 44 36 45 48 45 35 38 43 38 37 30 28 25 22 23 22 22
52 53 54 55 54 44 39 41 39 39 56 46 47 47 47 44 49 39 28 33 35 43 38 40 57 56 50 49 51 56 49 45 40 34 34 38 45 38 35 29 27 25 24 21 20
53 54 55 55 48 35 39 39 34 40 48 54 40 33 27 20 26 27 23 31 38 43 46 50 53 52 49 53 54 54 55 45 41 36 37 36 42 41 37 36 29 28 26 24 21
53 54 55 55 35 40 37 38 35 34 48 39 27 21 17 17 19 17 14 20 30 41 41 49 48 50 45 55 52 58 49 46 40 36 45 37 47 43 40 40 39 39 34 28 23
53 55 54 44 37 40 39 36 31 24 44 27 19 16 18 19 28 16 5 13 20 24 24 40 45 51 54 48 49 58 41 46 42 44 39 35 42 39 35 41 38 33 31 28 24
54 54 47 36 34 37 36 29 23 26 27 23 16 24 27 24 25 18 3 3 26 20 16 31 31 35 44 44 41 41 43 45 45 47 50 44 42 44 37 38 34 30 29 27 25
54 50 41 35 42 37 29 25 24 19 28 22 24 20 20 20 15 10 12 26 29 24 22 22 30 30 32 41 43 37 39 43 48 52 52 46 42 42 30 33 32 31 28 25 23
53 41 35 35 39 31 24 23 17 25 29 19 17 20 12 9 6 8 10 18 31 33 34 35 32 17 23 39 40 45 43 45 52 53 53 36 49 39 27 26 27 24 22 20 20
48 36 38 40 33 25 25 22 25 22 16 15 15 9 11 6 5 6 9 18 23 26 28 26 26 23 30 17 32 39 47 39 37 40 49 42 38 32 27 24 23 21 19 18 16
43 34 42 39 28 23 27 23 6 14 18 12 8 7 14 20 14 5 7 20 21 23 25 25 27 28 16 17 23 34 33 46 37 42 53 41 46 34 33 22 19 18 18 16 13
37 35 38 34 22 29 29 16 8 19 20 12 13 11 9 16 11 5 7 19 18 22 21 25 23 21 23 17 34 31 33 44 38 33 40 41 44 26 29 28 20 16 14 13 13
36 39 33 29 33 28 23 8 10 15 18 8 11 10 9 16 7 5 18 3 24 20 22 21 20 20 19 30 21 35 41 30 35 34 35 32 32 22 22 23 19 17 14 12 12
38 31 27 28 33 29 2 2 12 19 17 6 14 4 20 23 13 3 15 22 21 23 21 19 20 19 17 16 27 28 25 26 35 30 29 30 27 24 22 21 17 17 14 13 13
34 36 27 21 19 10 5 5 7 12 10 18 16 12 32 35 28 22 27 20 28 27 25 24 24 24 24 18 21 38 22 40 40 36 32 32 20 24 23 23 19 17 15 16 14
34 30 24 26 18 4 3 2 12 13 3 9 11 6 24 14 31 13 29 31 26 21 18 17 23 24 27 26 24 35 43 35 38 41 35 23 21 27 23 23 19 18 16 16 13
32 29 22 13 4 4 3 4 7 12 11 9 9 18 26 23 19 30 27 24 21 20 18 19 21 21 26 28 32 35 44 44 46 45 29 9 15 20 19 19 18 17 16 14 12
24 19 19 12 6 5 8 11 15 23 14 11 15 21 17 18 17 22 24 24 25 24 22 20 18 15 19 18 28 35 41 41 46 40 33 20 16 17 19 19 17 16 14 12 10
Wind_Direction
337 335 332 328 326 326 325 322 319 317 314 312 309 306 303 300 294 286 274 294 301 283 295 297 294 279 264 267 272 273 270 268 271 272 268 281 270 270 274 268 273 270 270 277 282
340 337 333 331 330 327 324 322 318 318 317 314 313 312 311 308 297 283 286 295 278 292 286 280 277 269 259 261 269 258 267 270 272 272 274 269 272 272 271 268 267 270 275 280 266
347 344 341 339 335 331 328 326 325 319 314 312 313 315 312 314 306 310 325 318 300 279 282 275 274 260 266 264 256 269 250 273 270 269 269 265 271 272 270 268 268 267 277 277 267
348 346 342 339 338 337 337 334 328 324 322 320 317 313 312 312 306 319 328 324 300 289 283 276 262 254 265 262 258 269 270 267 269 271 270 266 268 267 268 266 283 271 280 282 271
342 339 336 333 330 332 331 330 330 330 328 326 324 323 320 309 299 303 300 305 303 276 273 269 257 256 263 269 266 258 269 270 267 267 269 268 265 267 266 267 267 271 275 276 275
337 333 332 328 326 324 323 320 321 321 321 321 320 319 313 306 313 306 300 294 287 280 273 266 270 261 275 267 264 276 269 265 268 266 266 266 266 264 265 263 265 266 267 271 272
338 331 326 324 322 319 315 318 320 321 318 315 313 310 301 301 316 313 307 299 292 279 273 270 264 266 271 272 267 270 269 270 262 261 263 269 262 253 262 263 262 262 261 263 266
339 335 329 326 326 324 321 318 316 316 318 319 314 306 301 306 300 293 289 282 282 282 274 273 267 267 263 270 275 263 265 263 261 259 257 259 253 265 260 255 257 257 256 259 261
345 343 337 334 330 325 325 324 323 325 326 326 321 308 308 322 306 302 290 289 284 268 268 274 267 259 265 260 264 260 259 257 260 255 256 244 263 261 269 253 253 253 251 253 255
347 345 342 339 334 332 330 330 331 331 333 335 322 308 304 306 305 302 300 282 286 268 264 260 260 258 254 250 253 256 258 259 257 249 250 252 257 264 265 258 258 252 248 245 246
348 345 341 338 336 334 336 335 331 324 320 310 305 299 299 298 298 294 296 278 278 264 258 256 251 248 244 241 253 268 263 259 258 257 251 253 256 255 261 259 253 251 247 241 235
347 344 341 339 338 340 341 338 333 327 314 312 304 299 296 294 292 287 278 275 269 264 260 257 251 254 258 254 254 253 260 259 259 254 254 255 254 254 252 255 250 250 251 245 234
347 346 343 340 340 343 341 339 337 332 319 318 316 311 319 311 298 299 275 270 268 264 259 256 259 259 256 252 250 250 250 255 257 254 255 258 254 250 248 249 247 251 255 252 243
349 347 345 342 344 344 342 341 338 338 322 326 334 337 342 340 319 312 311 292 268 266 264 260 260 257 256 250 248 248 247 250 253 251 250 248 254 248 245 245 247 250 251 248 247
351 349 347 349 345 344 343 342 347 350 326 349 4 12 350 330 317 347 325 308 295 275 270 264 258 255 253 254 247 248 249 245 248 249 253 245 251 251 241 242 243 243 243 243 242
352 350 352 356 351 350 346 350 355 345 343 355 12 320 285 269 263 230 223 215 273 291 275 273 275 269 253 251 246 249 247 245 244 247 246 243 244 247 242 241 242 240 240 240 239
354 354 358 358 351 348 353 358 353 360 355 5 289 272 268 265 247 220 186 199 248 283 286 283 274 276 258 250 244 242 232 234 237 238 241 240 243 243 244 243 242 237 237 237 238
356 358 5 3 357 4 8 10 19 8 350 282 271 272 242 232 185 108 201 206 242 253 272 275 274 276 267 247 240 230 227 232 234 231 234 240 239 243 247 250 244 233 231 228 234
359 8 8 8 12 22 28 33 23 318 284 280 281 226 287 274 119 118 149 252 272 273 271 271 273 274 267 235 233 226 228 232 251 237 238 233 242 243 248 239 241 226 218 222 227
5 10 11 10 25 37 38 49 257 295 293 257 212 256 293 312 289 69 178 317 305 300 279 249 264 261 263 244 221 232 226 228 240 235 232 231 233 242 223 226 223 219 215 216 217
13 15 18 22 45 42 46 81 273 306 310 269 266 257 256 302 281 169 115 317 291 297 283 240 245 270 275 157 220 227 220 229 234 242 230 227 231 244 223 220 216 210 207 199 201
16 17 24 32 36 49 65 283 279 303 305 244 258 259 261 297 265 195 278 261 295 287 274 238 256 251 229 222 239 226 183 188 224 230 233 239 231 238 224 213 211 205 196 191 182
18 23 38 42 41 46 56 211 296 307 303 243 269 114 282 294 279 238 266 274 284 284 270 274 238 245 231 249 231 228 227 185 223 229 228 232 235 230 221 205 201 194 185 171 159
23 25 38 59 68 61 16 85 310 302 279 294 271 267 306 299 309 278 273 261 287 275 268 247 229 231 236 247 228 220 212 177 185 230 234 236 233 216 208 202 196 190 177 164 157
29 32 42 34 47 3 347 306 316 311 37 296 34 315 290 283 283 239 277 281 278 263 271 267 248 235 236 238 229 201 211 198 179 211 228 235 229 207 204 194 183 170 166 158 157
25 29 36 47 18 356 20 22 334 322 319 334 339 298 290 278 262 267 262 256 239 242 263 277 231 242 233 228 207 200 195 173 180 201 218 237 194 196 190 181 171 170 166 160 159
29 36 37 44 37 7 39 318 302 301 16 349 312 302 299 278 264 259 244 232 217 225 233 238 223 216 210 234 142 197 169 162 174 206 211 227 191 176 179 178 174 170 166 162 157